timestamp,surface_pressure_avg,surface_temp_avg,battery_voltage,lat,long
2024-05-08 00:09:00+00:00,382.7429,3.6,12.41,47.84626,-54.09684
2024-05-08 00:19:00+00:00,379.7097,3.6,12.41,47.84626,-54.09684
2024-05-08 00:29:00+00:00,374.648,3.6,12.41,47.84626,-54.09684
2024-05-08 00:39:00+00:00,366.2795,3.6,12.41,47.84626,-54.09684
2024-05-08 00:49:00+00:00,361.5062,3.6,12.41,47.84626,-54.09684
2024-05-08 00:59:00+00:00,357.5463,3.6,12.41,47.84626,-54.09684
2024-05-08 01:09:00+00:00,347.7879,3.6,12.41,47.84626,-54.09684
2024-05-08 01:19:00+00:00,340.6346,3.6,12.41,47.84626,-54.09684
2024-05-08 01:29:00+00:00,335.0563,3.6,12.41,47.84626,-54.09684
2024-05-08 01:39:00+00:00,327.4996,3.6,12.41,47.84626,-54.09684
2024-05-08 01:49:00+00:00,317.113,3.6,12.41,47.84626,-54.09684
2024-05-08 01:59:00+00:00,308.3163,3.6,12.41,47.84626,-54.09684
2024-05-08 02:09:00+00:00,300.7397,3.6,12.41,47.84626,-54.09684
2024-05-08 02:19:00+00:00,289.228,3.6,12.41,47.84626,-54.09684
2024-05-08 02:29:00+00:00,279.2897,3.59,12.41,47.84626,-54.09684
2024-05-08 02:39:00+00:00,273.9764,3.58,12.41,47.84626,-54.09684
2024-05-08 02:49:00+00:00,263.5364,3.59,12.41,47.84626,-54.09684
2024-05-08 02:59:00+00:00,248.8948,3.6,12.41,47.84626,-54.09684
2024-05-08 03:09:00+00:00,238.9498,3.6,12.41,47.84626,-54.09684
2024-05-08 03:19:00+00:00,232.5348,3.6,12.41,47.84626,-54.09684
2024-05-08 03:29:00+00:00,223.8731,3.66,12.41,47.84626,-54.09684
2024-05-08 03:39:00+00:00,214.5264,3.7,12.41,47.84626,-54.09684
2024-05-08 03:49:00+00:00,208.6414,3.7,12.41,47.84626,-54.09684
2024-05-08 03:59:00+00:00,200.9098,3.81,12.41,47.84626,-54.09684
2024-05-08 04:09:00+00:00,194.5714,4.06,12.41,47.84626,-54.09684
2024-05-08 04:19:00+00:00,192.9749,4.2,12.33,47.84626,-54.09684
2024-05-08 04:29:00+00:00,188.9832,4.2,12.33,47.84626,-54.09684
2024-05-08 04:39:00+00:00,182.8015,4.1,12.33,47.84626,-54.09684
2024-05-08 04:49:00+00:00,178.2481,4.1,12.33,47.84626,-54.09684
2024-05-08 04:59:00+00:00,178.0598,4.1,12.33,47.84626,-54.09684
2024-05-08 05:09:00+00:00,176.0049,4.04,12.33,47.84626,-54.09684
2024-05-08 05:19:00+00:00,175.9382,4.0,12.33,47.84626,-54.09684
2024-05-08 05:29:00+00:00,180.9015,4.0,12.33,47.84626,-54.09684
2024-05-08 05:39:00+00:00,183.1581,4.0,12.33,47.84626,-54.09684
2024-05-08 05:49:00+00:00,181.4815,4.08,12.33,47.84626,-54.09684
2024-05-08 05:59:00+00:00,180.9081,4.1,12.33,47.84626,-54.09684
2024-05-08 06:09:00+00:00,183.0581,4.1,12.33,47.84626,-54.09684
2024-05-08 06:19:00+00:00,183.3265,4.1,12.33,47.84626,-54.09684
2024-05-08 06:29:00+00:00,183.8381,4.09,12.33,47.84626,-54.09684
2024-05-08 06:39:00+00:00,189.0565,4.0,12.33,47.84626,-54.09684
2024-05-08 06:49:00+00:00,192.7331,4.0,12.33,47.84626,-54.09684
2024-05-08 06:59:00+00:00,193.8698,3.9,12.33,47.84626,-54.09684
2024-05-08 07:09:00+00:00,201.2948,3.8,12.33,47.84626,-54.09684
2024-05-08 07:19:00+00:00,206.9281,3.8,12.33,47.84626,-54.09684
2024-05-08 07:29:00+00:00,207.4647,3.79,12.33,47.84626,-54.09684
2024-05-08 07:39:00+00:00,214.4764,3.76,12.33,47.84626,-54.09684
2024-05-08 07:49:00+00:00,221.6031,3.74,12.33,47.84626,-54.09684
2024-05-08 07:59:00+00:00,224.4931,3.7,12.33,47.84626,-54.09684
2024-05-08 08:09:00+00:00,229.3581,3.7,12.33,47.84626,-54.09684
2024-05-08 08:19:00+00:00,237.0247,3.7,12.33,47.84626,-54.09684
2024-05-08 08:29:00+00:00,242.7348,3.7,12.33,47.84626,-54.09684
2024-05-08 08:39:00+00:00,249.0947,3.7,12.33,47.84626,-54.09684
2024-05-08 08:49:00+00:00,257.4131,3.64,12.33,47.84626,-54.09684
2024-05-08 08:59:00+00:00,265.9798,3.6,12.33,47.84626,-54.09684
2024-05-08 09:09:00+00:00,272.6747,3.6,12.33,47.84626,-54.09684
2024-05-08 09:19:00+00:00,282.5214,3.6,12.33,47.84626,-54.09684
2024-05-08 09:29:00+00:00,290.603,3.6,12.33,47.84626,-54.09684
2024-05-08 09:39:00+00:00,298.863,3.6,12.33,47.84626,-54.09684
2024-05-08 09:49:00+00:00,310.2513,3.6,12.33,47.84626,-54.09684
2024-05-08 09:59:00+00:00,322.5547,3.6,12.33,47.84626,-54.09684
2024-05-08 10:09:00+00:00,330.5731,3.58,12.33,47.84626,-54.09684
2024-05-08 10:19:00+00:00,335.0997,3.58,12.41,47.84626,-54.09684
2024-05-08 10:29:00+00:00,343.3396,3.52,12.41,47.84626,-54.09684
2024-05-08 10:39:00+00:00,353.2629,3.5,12.41,47.84626,-54.09684
2024-05-08 10:49:00+00:00,357.3597,3.47,12.41,47.84626,-54.09684
2024-05-08 10:59:00+00:00,359.4397,3.49,12.41,47.84626,-54.09684
2024-05-08 11:09:00+00:00,362.6431,3.45,12.41,47.84626,-54.09684
2024-05-08 11:19:00+00:00,366.6746,3.41,12.41,47.84626,-54.09684
2024-05-08 11:29:00+00:00,366.5746,3.44,12.41,47.84626,-54.09684
2024-05-08 11:39:00+00:00,366.4045,3.4,12.41,47.84626,-54.09684
2024-05-08 11:49:00+00:00,368.2546,3.4,12.41,47.84626,-54.09684
2024-05-08 11:59:00+00:00,364.5146,3.4,12.41,47.84626,-54.09684
2024-05-08 12:09:00+00:00,361.758,3.4,12.41,47.84626,-54.09684
2024-05-08 12:19:00+00:00,361.9529,3.4,12.41,47.84626,-54.09684
2024-05-08 12:29:00+00:00,363.5013,3.4,12.41,47.84626,-54.09684
2024-05-08 12:39:00+00:00,357.9679,3.4,12.41,47.84626,-54.09684
2024-05-08 12:49:00+00:00,351.3012,3.43,12.41,47.84626,-54.09684
2024-05-08 12:59:00+00:00,350.0696,3.46,12.41,47.84626,-54.09684
2024-05-08 13:09:00+00:00,348.6647,3.47,12.41,47.84626,-54.09684
2024-05-08 13:19:00+00:00,342.2496,3.48,12.49,47.84626,-54.09684
2024-05-08 13:29:00+00:00,335.2213,3.5,12.49,47.84626,-54.09684
2024-05-08 13:39:00+00:00,328.4530000000001,3.5,12.49,47.84626,-54.09684
2024-05-08 13:49:00+00:00,320.7897,3.5,12.49,47.84626,-54.09684
2024-05-08 13:59:00+00:00,314.7697,3.5,12.49,47.84626,-54.09684
2024-05-08 14:09:00+00:00,306.1531,3.63,12.49,47.84626,-54.09684
2024-05-08 14:19:00+00:00,292.4897,4.5,12.97,47.84626,-54.09684
2024-05-08 14:29:00+00:00,282.0848,4.07,12.97,47.84626,-54.09684
2024-05-08 14:39:00+00:00,276.6064,4.82,12.97,47.84626,-54.09684
2024-05-08 14:49:00+00:00,269.7097,5.72,12.97,47.84626,-54.09684
2024-05-08 14:59:00+00:00,259.1131,5.9,12.97,47.84626,-54.09684
2024-05-08 15:09:00+00:00,248.4481,6.05,12.97,47.84626,-54.09684
2024-05-08 15:19:00+00:00,240.7698,6.17,13.44,47.84626,-54.09684
2024-05-08 15:29:00+00:00,233.0081,6.2,13.44,47.84626,-54.09684
2024-05-08 15:39:00+00:00,223.9348,6.1,13.44,47.84626,-54.09684
2024-05-08 15:49:00+00:00,214.4831,6.1,13.44,47.84626,-54.09684
2024-05-08 15:59:00+00:00,206.9564,6.16,13.44,47.84626,-54.09684
2024-05-08 16:09:00+00:00,198.1964,6.29,13.44,47.84626,-54.09684
2024-05-08 16:19:00+00:00,192.3331,6.4,13.05,47.84626,-54.09684
2024-05-08 16:29:00+00:00,192.1631,6.4,13.05,47.84626,-54.09684
2024-05-08 16:39:00+00:00,189.4414,6.4,13.05,47.84626,-54.09684
2024-05-08 16:49:00+00:00,182.8331,6.48,13.05,47.84626,-54.09684
2024-05-08 16:59:00+00:00,180.0882,6.5,13.05,47.84626,-54.09684
2024-05-08 17:09:00+00:00,179.6298,6.5,13.05,47.84626,-54.09684
2024-05-08 17:19:00+00:00,175.0015,6.5,12.89,47.84626,-54.09684
2024-05-08 17:29:00+00:00,172.2182,5.67,12.89,47.84626,-54.09684
2024-05-08 17:39:00+00:00,175.2231,5.2,12.89,47.84626,-54.09684
2024-05-08 17:49:00+00:00,179.1015,5.11,12.89,47.84626,-54.09684
2024-05-08 17:59:00+00:00,182.1731,5.1,12.89,47.84626,-54.09684
2024-05-08 18:09:00+00:00,186.7064,5.1,12.89,47.84626,-54.09684
2024-05-08 18:19:00+00:00,191.2681,5.07,12.73,47.84626,-54.09684
2024-05-08 18:29:00+00:00,194.2864,5.1,12.73,47.84626,-54.09684
2024-05-08 18:39:00+00:00,198.4798,4.8,12.73,47.84626,-54.09684
2024-05-08 18:49:00+00:00,203.9548,4.8,12.73,47.84626,-54.09684
2024-05-08 18:59:00+00:00,208.9864,4.8,12.73,47.84626,-54.09684
2024-05-08 19:09:00+00:00,211.7748,4.8,12.73,47.84626,-54.09684
2024-05-08 19:19:00+00:00,215.7065,4.8,12.65,47.84626,-54.09684
2024-05-08 19:29:00+00:00,221.6747,4.8,12.65,47.84626,-54.09684
2024-05-08 19:39:00+00:00,228.2065,4.8,12.65,47.84626,-54.09684
2024-05-08 19:49:00+00:00,235.4598,4.8,12.65,47.84626,-54.09684
2024-05-08 19:59:00+00:00,242.1714,4.8,12.65,47.84626,-54.09684
2024-05-08 20:09:00+00:00,247.8197,4.8,12.65,47.84626,-54.09684
2024-05-08 20:19:00+00:00,254.7914,4.79,12.65,47.84626,-54.09684
2024-05-08 20:29:00+00:00,259.6264,4.77,12.65,47.84626,-54.09684
2024-05-08 20:39:00+00:00,261.2781,4.7,12.65,47.84626,-54.09684
2024-05-08 20:49:00+00:00,264.2814,4.6,12.65,47.84626,-54.09684
2024-05-08 20:59:00+00:00,271.6064,4.6,12.65,47.84626,-54.09684
2024-05-08 21:09:00+00:00,276.363,4.6,12.65,47.84626,-54.09684
2024-05-08 21:19:00+00:00,280.7247,4.6,12.57,47.84626,-54.09684
2024-05-08 21:29:00+00:00,289.563,4.6,12.57,47.84626,-54.09684
2024-05-08 21:39:00+00:00,303.2347,4.6,12.57,47.84626,-54.09684
2024-05-08 21:49:00+00:00,315.2664,4.53,12.57,47.84626,-54.09684
2024-05-08 21:59:00+00:00,325.1646,4.48,12.57,47.84626,-54.09684
2024-05-08 22:09:00+00:00,334.7729,4.43,12.57,47.84626,-54.09684
2024-05-08 22:19:01+00:00,345.668,4.4,12.41,47.84626,-54.09684
2024-05-08 22:29:01+00:00,352.5114,4.4,12.41,47.84626,-54.09684
2024-05-08 22:39:01+00:00,354.2012,4.28,12.41,47.84626,-54.09684
2024-05-08 22:49:01+00:00,365.2195,3.87,12.41,47.84626,-54.09684
2024-05-08 22:59:01+00:00,375.3528,3.71,12.41,47.84626,-54.09684
2024-05-08 23:09:01+00:00,376.44300000000004,3.82,12.41,47.84626,-54.09684
2024-05-08 23:19:00+00:00,376.218,3.9,12.41,47.84626,-54.09684
2024-05-08 23:29:00+00:00,385.3796,3.53,12.41,47.84626,-54.09684
2024-05-08 23:39:00+00:00,393.6396,3.4,12.41,47.84626,-54.09684
2024-05-08 23:49:00+00:00,390.2429,3.69,12.41,47.84626,-54.09684
2024-05-08 23:59:00+00:00,393.80300000000005,3.55,12.41,47.84626,-54.09684
